[[{"header":{"parameterUnit":"m.s-1","parameterCategory":1,"la1":30.2991,"la2":30.254,"lo1":-89.0895,"lo2":-89.0444,"dy":0.0017,"dx":0.0017,"nx":28,"ny":28,"refTime":"2023-08-12T03:00:00:Z","depth":0,"parameterNumber":2,"parameterNumberName":"U-component_of_WINDS"},"data":[0,0,0,0,0,0,0,0,0,0,0,0,0,0,0,0,0,0,0,0,0,0,0,0,0,0,0,0,0,0,0,0,0,0,0,0,0,0,0,0,0,0,0,0,0,0,0,0,0,0,0,0,0,0,0,0,0,0,1.7558,1.756,0,1.7698,1.7699,1.7701,1.7715,1.7714,1.7712,1.7711,1.786,1.7865,1.787,0,0,0,0,0,0,0,0,0,0,0,0,0,1.7309,1.7313,1.7558,1.756,1.7561,1.7697,1.7699,1.7701,1.7715,1.7714,1.7712,1.771,1.7858,1.7864,1.7871,0,0,0,0,0,0,0,0,0,0,0,0,0,1.743,1.7315,1.7558,1.7585,1.7589,1.7697,1.7699,1.7702,1.7716,1.7714,1.7711,1.7709,1.7856,1.7864,1.7872,1.7964,0,0,1.7896,1.7899,0,0,0,0,0,0,0,0,1.7423,1.7439,1.7579,1.7583,1.7588,1.7687,1.7666,1.779,1.7716,1.7668,1.7711,1.7708,1.7804,1.7816,1.7848,1.7971,1.7978,1.7897,1.7902,1.7905,1.7907,0,0,0,0,0,0,0,1.7415,1.7433,1.7613,1.7581,1.7586,1.7592,1.7606,1.769,1.7747,1.7672,1.7673,1.7689,1.7806,1.784,1.7851,1.798,1.7896,1.7904,1.7909,1.7912,1.8187,1.819,0,0,0,0,0,0,1.74,1.7426,1.7609,1.7618,1.7498,1.7598,1.7614,1.7657,1.7746,1.7757,1.7691,1.7689,1.7827,1.7842,1.7857,1.7971,1.7905,1.7912,1.7917,1.8185,1.8188,1.819,0,0,0,0,0,0,1.7395,1.7417,1.7603,1.7522,1.7546,1.7605,1.7652,1.7661,1.7694,1.776,1.7771,1.7714,1.7826,1.7845,1.7937,1.7976,1.7916,1.7923,1.8182,1.8186,1.8189,1.8199,0,0,0,0,0,0,1.7388,1.7414,1.7449,1.7523,1.7551,1.768,1.7655,1.7665,1.7708,1.7707,1.7785,1.7796,1.7826,1.7925,1.7945,1.7986,1.7929,1.8178,1.8183,1.8188,1.8196,1.8203,1.8209,0,0,0,0,0,1.7379,1.7448,1.7451,1.7473,1.7595,1.7682,1.7698,1.7729,1.7711,1.7747,1.7789,1.7793,1.7969,1.7934,1.7957,1.8001,1.8176,1.8182,1.8187,1.8193,1.8202,1.8209,0,0,0,0,0,0,1.7379,1.7458,1.7462,1.7556,1.7612,1.7684,1.773,1.7738,1.7802,1.7799,1.7837,1.7854,1.7945,1.7982,1.7943,1.8095,1.8071,1.8081,1.8067,1.8076,1.8083,1.8071,1.7936,0,0,0,0,0,1.7389,1.7452,1.7518,1.7596,1.7623,1.7672,1.7711,1.773,1.779,1.7815,1.7864,1.7923,1.7992,1.8036,1.8103,1.8202,1.8219,1.8243,1.825,1.8255,1.8263,1.8318,1.833,1.8209,1.8209,1.8209,0,0,1.7413,1.7464,1.7501,1.7597,1.7642,1.7707,1.7692,1.7762,1.7811,1.7826,1.7915,1.7953,1.8022,1.8118,1.8162,1.8152,1.8301,1.8262,1.8266,1.8272,1.8325,1.8337,1.8347,1.8213,1.8212,1.8212,0,0,1.7488,1.7533,1.7601,1.7647,1.7715,1.7747,1.7764,1.7835,1.786,1.795,1.7962,1.8023,1.814,1.8188,1.8228,1.8322,1.8329,1.8343,1.8378,1.8431,1.8441,1.8449,1.8482,1.8494,1.8352,1.8352,1.8352,0,1.7509,1.7606,1.7636,1.7706,1.7748,1.7763,1.7833,1.7877,1.7964,1.7994,1.798,1.8127,1.8175,1.8282,1.8304,1.8337,1.8357,1.8334,1.8437,1.8446,1.8454,1.8486,1.8498,1.8353,1.8353,1.8353,1.8353,0,1.7628,1.7695,1.7743,1.7824,1.7872,1.7942,1.7984,1.803,1.8045,1.8079,1.817,1.8228,1.8306,1.8333,1.835,1.8443,1.8434,1.8428,1.8404,1.8466,1.8497,1.8509,1.8355,1.8354,1.8354,1.8354,0,0,1.7706,1.7804,1.7821,1.7858,1.7934,1.7988,1.8059,1.8134,1.8172,1.8232,1.8293,1.8391,1.8386,1.8432,1.8454,1.8501,1.8571,1.849,1.8492,1.8502,1.8677,1.8679,1.8693,1.8576,1.8579,1.8581,1.867,0,1.779,1.7914,1.7944,1.8051,1.8114,1.8129,1.8192,1.8246,1.828,1.834,1.8378,1.8447,1.8435,1.8463,1.851,1.8552,1.8606,1.8547,1.8634,1.8637,1.8615,1.8709,1.8713,1.8795,1.8683,1.8685,1.8686,0,1.7903,1.7964,1.8076,1.8145,1.8172,1.8227,1.8298,1.8355,1.8418,1.8439,1.8489,1.8507,1.8583,1.8556,1.8661,1.862,1.8658,1.8684,1.8688,1.8697,1.8664,1.872,1.8822,1.8833,1.8706,1.8704,1.8703,0,1.7948,1.8058,1.814,1.8171,1.8253,1.8291,1.8328,1.8388,1.8431,1.8494,1.8522,1.8594,1.8633,1.8689,1.8726,1.8703,1.8829,1.8804,1.8849,1.8848,1.8874,1.8872,1.8983,1.89,1.89,1.89,1.89,0,1.8037,1.8106,1.8161,1.8211,1.8288,1.8323,1.8399,1.8436,1.849,1.8549,1.8568,1.8623,1.8669,1.873,1.876,1.8843,1.8861,1.8881,1.8888,1.8879,1.8876,1.8903,1.8898,1.8903,1.8902,1.8902,1.8901,0,1.81,1.814,1.8229,1.8299,1.8319,1.8372,1.8433,1.8483,1.8518,1.8592,1.8611,1.8666,1.8739,1.8782,1.8876,1.8896,1.8987,1.8992,1.8965,1.8968,1.901,1.9005,1.9141,1.9161,1.9066,1.9067,1.9068,0,1.8154,1.8206,1.8281,1.8321,1.8357,1.8422,1.8465,1.8502,1.8547,1.8622,1.8664,1.8738,1.8799,1.8916,1.8965,1.9037,1.9043,1.9086,1.9054,1.9043,1.9043,1.9039,1.9044,1.9091,1.9092,1.9093,1.9093,0,1.8245,1.8262,1.8323,1.8391,1.8442,1.8498,1.8554,1.8586,1.8632,1.8682,1.8756,1.8804,1.8898,1.8972,1.9047,1.9087,1.9098,1.9103,1.9117,1.9108,1.9089,1.9099,1.8979,1.91,1.9099,1.9099,1.9098,1.9098,1.8304,1.8351,1.8411,1.8479,1.8524,1.8576,1.8626,1.8666,1.8728,1.8807,1.8826,1.8904,1.8967,1.9069,1.911,1.9173,1.9165,1.9186,1.9191,1.9195,1.9196,1.908,1.9187,1.9187,1.9187,1.9186,1.9186,0,1.8395,1.8434,1.8496,1.8573,1.8626,1.8631,1.8693,1.8738,1.8806,1.8862,1.8922,1.9007,1.9079,1.9133,1.9207,1.9247,1.9254,1.9265,1.9262,1.9271,1.9199,1.9178,1.9258,1.9258,1.9258,1.9258,1.9258,1.9258,1.8448,1.8528,1.8553,1.8656,1.8696,1.8771,1.8806,1.8854,1.8899,1.8993,1.9052,1.9087,1.9143,1.9221,1.9287,1.9301,1.9327,1.9337,1.9352,1.9284,1.9276,1.9268,1.925,1.9343,1.9343,1.9419,1.942,1.942]},{"header":{"parameterUnit":"m.s-1","parameterCategory":1,"la1":30.2991,"la2":30.254,"lo1":-89.0895,"lo2":-89.0444,"dy":0.0017,"dx":0.0017,"nx":28,"ny":28,"refTime":"2023-08-12T03:00:00:Z","depth":0,"parameterNumber":3,"parameterNumberName":"V-component_of_WINDS"},"data":[0,0,0,0,0,0,0,0,0,0,0,0,0,0,0,0,0,0,0,0,0,0,0,0,0,0,0,0,0,0,0,0,0,0,0,0,0,0,0,0,0,0,0,0,0,0,0,0,0,0,0,0,0,0,0,0,0,0,4.0006,4.0006,0,4.0035,4.0035,4.0035,4.004,4.004,4.004,4.004,4.0065,4.0066,4.0067,0,0,0,0,0,0,0,0,0,0,0,0,0,3.9947,3.9948,4.0006,4.0006,4.0006,4.0035,4.0035,4.0035,4.004,4.004,4.004,4.004,4.0065,4.0066,4.0067,0,0,0,0,0,0,0,0,0,0,0,0,0,3.9974,3.9948,4.0005,4.0012,4.0013,4.0035,4.0035,4.0036,4.004,4.004,4.004,4.0039,4.0065,4.0066,4.0067,4.0083,0,0,4.0071,4.0072,0,0,0,0,0,0,0,0,3.9972,3.9976,4.0011,4.0012,4.0013,4.0034,4.0024,4.0051,4.0041,4.003,4.004,4.0039,4.0055,4.0057,4.0063,4.0084,4.0085,4.0072,4.0072,4.0073,4.0073,0,0,0,0,0,0,0,3.997,3.9975,4.0017,4.0011,4.0013,4.0011,4.0015,4.0029,4.0044,4.0031,4.0031,4.0035,4.0055,4.0062,4.0064,4.0085,4.0072,4.0073,4.0074,4.0074,4.0116,4.0116,0,0,0,0,0,0,3.9968,3.9973,4.0016,4.0018,3.9991,4.0013,4.0017,4.0027,4.0044,4.0046,4.0035,4.0035,4.006,4.0062,4.0065,4.0081,4.0073,4.0074,4.0075,4.0115,4.0116,4.0116,0,0,0,0,0,0,3.9967,3.9972,4.0015,3.9996,4.0001,4.0014,4.0026,4.0028,4.0035,4.0047,4.0049,4.004,4.0059,4.0063,4.0077,4.0082,4.0075,4.0076,4.0115,4.0115,4.0116,4.0116,0,0,0,0,0,0,3.9965,3.9971,3.998,3.9996,4.0002,4.003,4.0026,4.0029,4.0037,4.0038,4.0052,4.0054,4.0059,4.0075,4.0079,4.0084,4.0077,4.0115,4.0115,4.0116,4.0116,4.0116,4.0117,0,0,0,0,0,3.9963,3.9978,3.998,3.9985,4.0013,4.003,4.0033,4.0041,4.0038,4.0044,4.0052,4.0053,4.0081,4.0077,4.0081,4.0086,4.0114,4.0115,4.0116,4.0115,4.0116,4.0117,0,0,0,0,0,0,3.9962,3.9981,3.9983,4.0004,4.0015,4.0031,4.004,4.0042,4.0053,4.0053,4.006,4.0063,4.0077,4.0083,4.0078,4.01,4.0097,4.0099,4.0095,4.0096,4.0097,4.0095,4.0078,0,0,0,0,0,3.9965,3.9979,3.9994,4.0011,4.0016,4.0027,4.0035,4.0039,4.005,4.0055,4.0064,4.0073,4.0083,4.009,4.0101,4.0116,4.0117,4.0121,4.0122,4.0122,4.0123,4.0129,4.013,4.0118,4.0118,4.0118,0,0,3.997,3.9981,3.999,4.0011,4.002,4.0032,4.0031,4.0045,4.0053,4.0057,4.0071,4.0077,4.0088,4.0102,4.0108,4.0107,4.0127,4.0123,4.0124,4.0124,4.0129,4.013,4.0131,4.0118,4.0118,4.0118,0,0,3.9985,3.9996,4.001,4.0019,4.0033,4.0039,4.0042,4.0056,4.006,4.0075,4.0077,4.0085,4.0104,4.0111,4.0116,4.0129,4.013,4.0132,4.0135,4.014,4.0141,4.0142,4.0144,4.0145,4.0133,4.0133,4.0133,0,3.9989,4.0009,4.0017,4.003,4.0037,4.0041,4.0053,4.0061,4.0077,4.0081,4.0079,4.0101,4.0108,4.0122,4.0125,4.013,4.0132,4.0131,4.0141,4.0142,4.0142,4.0145,4.0146,4.0133,4.0133,4.0133,4.0133,0,4.0012,4.0025,4.0034,4.005,4.0058,4.0071,4.0078,4.0085,4.0087,4.0092,4.0105,4.0114,4.0124,4.0128,4.0131,4.0141,4.014,4.014,4.0137,4.0143,4.0146,4.0147,4.0133,4.0133,4.0133,4.0133,0,0,4.003,4.0046,4.005,4.0055,4.0068,4.0078,4.0088,4.0099,4.0104,4.0113,4.0121,4.0135,4.0133,4.014,4.0143,4.0147,4.0153,4.0146,4.0146,4.0146,4.0162,4.0162,4.0163,4.0154,4.0154,4.0154,4.0161,0,4.0045,4.0066,4.0071,4.0088,4.0098,4.01,4.0108,4.0116,4.012,4.0128,4.0132,4.0141,4.014,4.0143,4.0147,4.0152,4.0156,4.0151,4.0158,4.0159,4.0155,4.0164,4.0165,4.0171,4.0162,4.0162,4.0162,0,4.0066,4.0076,4.0093,4.0102,4.0106,4.0114,4.0123,4.0131,4.0138,4.014,4.0146,4.0148,4.0156,4.0152,4.0162,4.0158,4.0161,4.0163,4.0163,4.0164,4.0161,4.0164,4.0173,4.0174,4.0164,4.0164,4.0164,0,4.0074,4.0091,4.0103,4.0108,4.0119,4.0124,4.0128,4.0135,4.014,4.0147,4.015,4.0157,4.0161,4.0165,4.0168,4.0166,4.0176,4.0174,4.0177,4.0177,4.0179,4.0179,4.0188,4.0182,4.0182,4.0182,4.0182,0,4.009,4.01,4.0107,4.0114,4.0124,4.0128,4.0138,4.0142,4.0147,4.0154,4.0155,4.0161,4.0164,4.0169,4.0171,4.0177,4.0179,4.018,4.018,4.018,4.0179,4.0181,4.0181,4.0183,4.0183,4.0183,4.0183,0,4.0101,4.0106,4.0119,4.0127,4.0129,4.0136,4.0142,4.0148,4.0151,4.0159,4.016,4.0165,4.0171,4.0174,4.0181,4.0182,4.0189,4.0189,4.0187,4.0187,4.0189,4.0188,4.0199,4.02,4.0194,4.0194,4.0195,0,4.011,4.0118,4.0126,4.0131,4.0135,4.0143,4.0147,4.0151,4.0155,4.0162,4.0166,4.0172,4.0177,4.0185,4.0188,4.0193,4.0193,4.0196,4.0194,4.0192,4.0191,4.0191,4.019,4.0197,4.0197,4.0197,4.0197,0,4.0125,4.0126,4.0134,4.0141,4.0146,4.0152,4.0158,4.0161,4.0165,4.0169,4.0175,4.0179,4.0185,4.019,4.0195,4.0197,4.0197,4.0198,4.0198,4.0197,4.0195,4.0195,4.0187,4.0197,4.0197,4.0197,4.0197,4.0197,4.0134,4.014,4.0146,4.0153,4.0157,4.0162,4.0166,4.0169,4.0175,4.0181,4.0182,4.0188,4.0191,4.0197,4.0199,4.0203,4.0202,4.0203,4.0203,4.0204,4.0203,4.0195,4.0204,4.0204,4.0204,4.0204,4.0204,0,4.0148,4.0151,4.0157,4.0164,4.0169,4.0169,4.0174,4.0177,4.0183,4.0186,4.0191,4.0196,4.02,4.0202,4.0206,4.0208,4.0208,4.0209,4.0208,4.0208,4.0204,4.0203,4.0209,4.0209,4.0209,4.0209,4.0209,4.0209,4.0155,4.0164,4.0165,4.0174,4.0177,4.0183,4.0186,4.0189,4.0192,4.0198,4.0201,4.0203,4.0205,4.0208,4.0211,4.0212,4.0212,4.0213,4.0213,4.0209,4.0209,4.0208,4.0207,4.0213,4.0214,4.0217,4.0217,4.0217]}]]